Regional Weather Roundup
Issued by NWS

Home | Current Version | Previous Version | Text Only | Print | Product List | Glossary On
Versions: 1 2 3 4 5 6 7 8 9 10 11 12 13 14 15 16 17 18 19 20 21 22 23 24 25 26 27 28 29 30 31 32 33 34 35 36 37 38 39 40 41 42 43 44 45 46 47 48 49 50
000
ASUS43 KLSX 151907
RWRMO

WEATHER SUMMARY FOR MISSOURI
NATIONAL WEATHER SERVICE SPRINGFIELD MO
200 PM CDT TUE APR 15 2014

NOTE: "FAIR" INDICATES FEW OR NO CLOUDS BELOW 12,000 FEET WITH NO
       SIGNIFICANT WEATHER AND/OR OBSTRUCTIONS TO VISIBILITY.
       CURRENT SKY AND/OR WEATHER CONDITIONS ARE NOT AVAILABLE FOR
       CHILLICOTHE AND FARMINGTON.

MOZ001>031-035>038-043-044-053-054-152000-
...NORTHERN AND WESTERN MISSOURI...

CITY           SKY/WX    TMP DP  RH WIND       PRES   REMARKS
KANSAS CTY INT MOSUNNY   50  21  32 S6        30.17F
KANSAS C DTWN  SUNNY     52  21  29 VRB5      30.17F
LEE`S SUMMIT   SUNNY     48  21  34 E3        30.17F
ST JOSEPH      SUNNY     48  21  34 S8        30.16F
CHILLICOTHE      N/A     47  19  33 CALM      30.19F
KIRKSVILLE     SUNNY     46  17  31 W12G18    30.19S

$$
MOZ066>068-077>081-088>096-101>105-152000-
...SOUTHWEST MISSOURI...

CITY           SKY/WX    TMP DP  RH WIND       PRES   REMARKS
SPRINGFIELD    SUNNY     48  24  39 SW8       30.19F
JOPLIN         SUNNY     52  23  32 VRB6      30.20F

$$
MOZ032>034-039>042-045>050-055>058-069>072-152000-
...CENTRAL MISSOURI...

CITY           SKY/WX    TMP DP  RH WIND       PRES   REMARKS
COLUMBIA       MOSUNNY   46  22  38 NW10      30.21S
JEFFERSON CITY SUNNY     45  20  36 NW9       30.22F
ROLLA          MOSUNNY   45  22  40 NW10      30.19S
SEDALIA        MOSUNNY   47  25  42 SW8       30.21F
WHITEMAN AFB   SUNNY     47  22  36 W9        30.19F
OSAGE BEACH    MOSUNNY   46  19  34 W3G17     30.23S

$$
MOZ051-052-059>065-152000-
...EAST CENTRAL MISSOURI...

CITY           SKY/WX    TMP DP  RH WIND       PRES   REMARKS
ST LOUIS INTL  MOSUNNY   46  20  35 N9        30.21F
SPIRIT OF STL  MOSUNNY   46  20  35 VRB7      30.21F
ST CHARLES     MOSUNNY   43  19  38 W12       30.21F

$$
MOZ072>076-082>087-097>100-106>115-152000-
...SOUTH CENTRAL AND SOUTHEAST MISSOURI...

CITY           SKY/WX    TMP DP  RH WIND       PRES   REMARKS
CAPE GIRARDEAU SUNNY     47  22  37 NW18      30.22F
FARMINGTON     SUNNY     45  19  36 N8        30.21F
POPLAR BLUFF   SUNNY     50  19  29 MISG      30.21S
WEST PLAINS    SUNNY     49  22  34 NW14      30.20F

$$



USA.gov is the U.S. government's official web portal to all federal, state and local government web resources and services.